Alabaster, AL

9:36 PM CDT on October 22, 2019 (GMT -0500)
Shelby County

Weather History for KEET - September, 2019

Change the Weather History Date:

Saturday, September 21, 2019

  Actual Average Record
Temperature  
Mean Temperature 76 °F 73 °F  
Max Temperature 90 °F 83 °F 95 °F (1973)
Min Temperature 62 °F 62 °F 44 °F (1956)
Degree Days  
Heating Degree Days 0 0  
Month to date heating degree days 0 0  
Since 1 July heating degree days 0 0  
Cooling Degree Days 11 8  
Month to date cooling degree days 363 229  
Year to date cooling degree days 2183 1827  
Growing Degree Days 26 (Base 50)    
Moisture  
Dew Point 57 °F    
Average Humidity 59    
Maximum Humidity 84    
Minimum Humidity 34    
Precipitation  
Precipitation 0.00 in 0.13 in 2.64 in (1998)
Month to date precipitation 0.38 2.74  
Year to date precipitation 33.87 40.82  
Sea Level Pressure  
Sea Level Pressure 30.21 in    
Wind  
Wind Speed 3 mph (SE)    
Max Wind Speed 10 mph    
Max Gust Speed 15 mph    
Visibility 10 miles    
Events      
T = Trace of Precipitation, MM = Missing Value Source: NWS Daily Summary

Daily Weather History Graph

Daily Weather History Graph

Search for Another Location

Airport or City:

Astronomy

Sep. 21, 2019 Rise Set
Actual Time 6:34 AM CDT 6:45 PM CDT
Civil Twilight 6:09 AM CDT 7:10 PM CDT
Nautical Twilight 5:40 AM CDT 7:39 PM CDT
Astronomical Twilight 5:11 AM CDT 8:08 PM CDT
Moon 11:42 PM CDT (9/21) 1:20 PM CDT (9/21)
Length of Visible Light 13h 00m
Length of Day
12h 11m
Waning Gibbous, 54% of the Moon is Illuminated
Sep 21
Waning Gibbous
Sep 21
Last Quarter
Sep 28
New
Oct 5
First Quarter
Oct 13
Full

Hourly Weather History & Observations

Time (CDT) Temp. Heat Index Dew Point Humidity Pressure Visibility Wind Dir Wind Speed Gust Speed Precip Events Conditions
12:53 AM 64.0 °F - 55.9 °F 75% 30.21 in 10.0 mi Calm Calm - N/A   Clear
1:53 AM 64.0 °F - 54.0 °F 70% 30.20 in 10.0 mi Calm Calm - N/A   Clear
2:53 AM 64.9 °F - 51.1 °F 61% 30.21 in 10.0 mi Calm Calm - N/A   Clear
3:53 AM 64.9 °F - 51.1 °F 61% 30.21 in 10.0 mi Variable 3.5 mph - N/A   Clear
4:53 AM 64.9 °F - 52.0 °F 63% 30.22 in 10.0 mi Variable 3.5 mph - N/A   Clear
5:53 AM 64.9 °F - 52.0 °F 63% 30.25 in 10.0 mi Calm Calm - N/A   Clear
6:53 AM 64.9 °F - 54.0 °F 68% 30.26 in 10.0 mi Calm Calm - N/A   Clear
7:53 AM 69.1 °F - 55.9 °F 63% 30.28 in 10.0 mi Variable 3.5 mph - N/A   Clear
8:53 AM 73.0 °F - 61.0 °F 66% 30.29 in 10.0 mi Variable 6.9 mph - N/A   Clear
9:53 AM 77.0 °F - 63.0 °F 62% 30.29 in 10.0 mi Variable 6.9 mph - N/A   Clear
10:53 AM 81.0 °F 82.2 °F 63.0 °F 54% 30.27 in 10.0 mi SSE 5.8 mph - N/A   Partly Cloudy
11:53 AM 84.9 °F 85.0 °F 61.0 °F 44% 30.25 in 10.0 mi North - - N/A   Mostly Cloudy
12:53 PM 86.0 °F 85.0 °F 57.9 °F 38% 30.22 in 10.0 mi Variable 5.8 mph - N/A   Scattered Clouds
1:53 PM 86.0 °F 84.9 °F 57.0 °F 37% 30.19 in 10.0 mi Variable 5.8 mph - N/A   Mostly Cloudy
2:53 PM 89.1 °F 88.0 °F 57.9 °F 35% 30.17 in 10.0 mi SE 6.9 mph - N/A   Clear
3:53 PM 88.0 °F 86.5 °F 55.9 °F 34% 30.15 in 10.0 mi Variable 3.5 mph - N/A   Partly Cloudy
4:53 PM 88.0 °F 86.1 °F 55.0 °F 32% 30.14 in 10.0 mi South 5.8 mph - N/A   Scattered Clouds
5:53 PM 86.0 °F 84.5 °F 55.0 °F 35% 30.14 in 10.0 mi SE 8.1 mph - N/A   Clear
6:53 PM 82.9 °F 82.1 °F 55.9 °F 39% 30.14 in 10.0 mi SE 3.5 mph - N/A   Clear
7:53 PM 73.9 °F - 61.0 °F 64% 30.16 in 10.0 mi Calm Calm - N/A   Clear
8:53 PM 71.1 °F - 60.1 °F 68% 30.18 in 10.0 mi Calm Calm - N/A   Clear
9:53 PM 69.1 °F - 61.0 °F 75% 30.18 in 10.0 mi Calm Calm - N/A   Clear
10:53 PM 66.9 °F - 60.1 °F 79% 30.18 in 10.0 mi Calm Calm - N/A   Clear
11:53 PM 64.9 °F - 59.0 °F 81% 30.17 in 10.0 mi Calm Calm - N/A   Clear